Flag for Switzerland Weather past 2 weeks in Burgdorf, Bern, Switzerland

Now
36 °F

Passing clouds.


Feels Like: 33 °F
Forecast: 29 / 37 °F
Wind: 3 mph from East

Location: Bern / Belp

Current Time: Jan 29, 2015 at 8:27:44 PM

Latest Report: Jan 29, 2015 at 7:50 PM


Visibility: N/A

Pressure: 29.06 "Hg

Humidity: 93%

Dew point: 34 °F

Location of BurgdorfLocation

Historic Weather in Burgdorf — Graph

°F

Burgdorf temperature yesterday

Maximum temperature yesterday: 36 °F (at 1:50 PM)
Minimum temperature yesterday: 19 °F (at 7:20 AM)
Average temperature yesterday: 30 °F

Past Weeks' High & Low Weather Summary

 TemperatureHumidityPressure
High46 °F (Jan 15, 2:20 PM)100% (Jan 14, 10:20 PM)30.39 "Hg (Jan 14, 10:20 PM)
Low19 °F (Jan 28, 7:20 AM)57% (Jan 15, 2:20 PM)29.09 "Hg (Jan 29, 7:20 PM)
Average33 °F88%29.97 "Hg
* Reported Jan 14 7:20 PM — Jan 29 7:20 PM, Burgdorf, Weather by CustomWeather, © 2014

Note: Actual official high and low records may vary slightly from our data, if they occured in-between our weather recording intervals... More about our weather records

Advertising

Burgdorf weather history for previous 24 hours

 ConditionsComfort  
Time TempWeatherWind HumidityBarometerVisibility
7:20 PM
Jan 29
34 °FPartly cloudy.2 mph100%29.09 "HgN/A
6:50 PM36 °FPartly cloudy.2 mph93%29.12 "HgN/A
6:20 PM36 °FPartly cloudy.3 mph93%29.12 "HgN/A
5:50 PM36 °FPartly cloudy.6 mph93%29.15 "HgN/A
5:20 PM36 °FPartly sunny.1 mph93%29.18 "HgN/A
4:50 PM37 °FPartly sunny.7 mph87%29.21 "HgN/A
4:20 PM37 °FPartly sunny.5 mph87%29.21 "HgN/A
3:50 PM37 °FPartly sunny.5 mph87%29.27 "Hg6 mi
3:20 PM37 °FPartly sunny.3 mph87%29.27 "Hg6 mi
2:50 PM37 °FPartly sunny.8 mph87%29.30 "Hg6 mi
2:20 PM37 °FPartly sunny.8 mph87%29.33 "Hg6 mi
1:50 PM37 °FDrizzle. Partly sunny.8 mph87%29.36 "Hg6 mi
1:20 PM39 °FSprinkles. Broken clouds.5 mph75%29.39 "Hg5 mi
12:50 PM39 °FPartly sunny.7 mph75%29.42 "HgN/A
12:20 PM39 °FDrizzle. Cloudy.6 mph75%29.45 "HgN/A
11:50 AM37 °FSprinkles. Broken clouds.13 mph81%29.47 "HgN/A
11:20 AM36 °FOvercast.7 mph93%29.50 "HgN/A
10:50 AM36 °FBroken clouds.3 mph87%29.53 "HgN/A
10:20 AM37 °FBroken clouds.7 mph81%29.53 "HgN/A
9:50 AM39 °FBroken clouds.2 mph75%29.53 "Hg4 mi
9:20 AM34 °FOvercast.2 mph100%29.56 "Hg4 mi
8:50 AM34 °FBroken clouds.3 mph93%29.56 "Hg4 mi
8:20 AM36 °FLight snow. Partly sunny.6 mph93%29.59 "Hg4 mi
7:50 AM36 °FLight rain. Passing clouds.5 mph87%29.59 "Hg4 mi
7:20 AM36 °FLight rain. Partly cloudy.6 mph87%29.59 "Hg6 mi
6:50 AM36 °FLight snow. Partly cloudy.5 mph87%29.62 "Hg6 mi
6:20 AM34 °FLight snow. Partly cloudy.8 mph93%29.62 "Hg4 mi
5:50 AM36 °FLight snow. Partly cloudy.10 mph87%29.62 "Hg6 mi
5:20 AM36 °FLight snow. Partly cloudy.7 mph87%29.62 "HgN/A
4:20 AM34 °FLight snow. Partly cloudy.9 mph93%29.62 "Hg2 mi
3:50 AM34 °FSnow. Partly cloudy.14 mph93%29.65 "Hg1 mi
3:20 AM43 °FSprinkles. Passing clouds.10 mph71%29.62 "HgN/A
2:50 AM37 °FPassing clouds.3 mph87%29.62 "HgN/A
2:20 AM34 °FSnow flurries. Passing clouds.2 mph87%29.62 "HgN/A
1:50 AM34 °FSnow flurries. Passing clouds.1 mph87%29.65 "HgN/A
1:20 AM32 °FPassing clouds.3 mph93%29.65 "HgN/A
12:50 AM32 °FPassing clouds.3 mph87%29.65 "HgN/A
12:20 AM32 °FMostly cloudy.1 mph93%29.68 "HgN/A
11:50 PM
Jan 28
32 °FPassing clouds.5 mph93%29.71 "HgN/A
11:20 PM32 °FPartly cloudy.2 mph87%29.71 "HgN/A
10:50 PM32 °FSnow flurries. Partly cloudy.2 mph87%29.74 "HgN/A
10:20 PM32 °FPartly cloudy.3 mph87%29.77 "HgN/A
9:50 PM32 °FPassing clouds.1 mph87%29.77 "HgN/A
9:20 PM32 °FPassing clouds.2 mph87%29.80 "HgN/A
8:50 PM32 °FPassing clouds.3 mph80%29.83 "HgN/A
8:20 PM32 °FPassing clouds.7 mph80%29.83 "HgN/A
Weather by CustomWeather, © 2014

See weather overviewHow to use our weather pages